Location: Gwatt
(46.7204°N, 7.6223°E)
Time: 01:52:12
(UTC+00:00)

Courier 1B Rocket - Pass Details

Date: 22 January 2021
Orbit: 920 x 1202 km, 28.3° (Epoch: 05 March)

Event Time Altitude Azimuth Distance (km) Brightness Sun altitude
Rises 11:29:57 0° 247° (WSW) 3,999 8.5 23.7°
Reaches altitude 10° 11:35:35 10° 214° (SW) 3,090 8.6 23.7°
Maximum altitude 11:37:22 11° 200° (SSW) 3,033 9.1 23.7°
Drops below altitude 10° 11:39:10 10° 187° (S) 3,111 9.6 23.7°
Sets 11:44:57 0° 154° (SSE) 4,087 9.3 23.7°
